Location: Pisarzowice
(50.4414°N, 18.5410°E)
Time: 12:09:37
(UTC+00:00)

Daily predictions for brighter satellites

Satellite Brightness Start Highest point End
(mag) Time Altitude Azimuth Time Altitude Azimuth Time Altitude Azimuth
Cosmos 2218 Rocket 4.2 18:48:46 10° SSW 18:54:57 78° W 19:01:08 10° N
Cosmos 1782 3.9 18:52:32 10° NNW 18:56:25 48° W 19:00:18 10° S
H-2A R/B 4.1 18:53:45 10° SSW 18:58:09 28° W 19:02:29 10° NW
Cosmos 1980 Rocket 2.9 18:54:19 10° NNW 18:59:42 41° NE 19:05:02 10° ESE
SPOT 5 4.4 18:57:33 10° E 19:00:28 18° ENE 19:03:25 10° NNE
Cosmos 1805 Rocket 3.8 18:56:51 10° S 19:01:10 54° E 19:05:32 10° NNE
ERBS 2.4 18:59:39 10° WSW 19:02:59 78° NNW 19:06:18 10° ENE
DMSP B5D2-2 4.2 18:59:07 10° NNE 19:04:22 87° WNW 19:09:37 10° SSW
SPOT 1/Viking Rocket 4.4 18:59:46 10° SE 19:04:30 36° ENE 19:09:16 10° N
ATLAS 5 CENTAUR R/B 2.8 19:02:53 10° NW 19:08:25 59° SW 19:14:51 10° SSE
Cosmos 1140 Rocket 4.2 19:06:12 10° SSE 19:10:48 32° ESE 19:15:26 10° NE
SL-4 R/B 3.1 19:07:59 10° SSW 19:10:59 21° SE 19:13:51 10° E
Genesis I 4.0 19:08:35 10° NNW 19:12:17 40° NE 19:15:51 11° ESE
Cosmos 1697 Rocket 2.7 19:10:01 10° NNW 19:15:41 82° ENE 19:21:19 10° SSE
Cosmos 2228 Rocket 4.0 19:12:26 10° NNW 19:16:44 50° W 19:20:59 10° SSW
Cosmos 1833 Rocket 2.9 19:12:33 10° S 19:17:55 49° ESE 19:23:20 10° NE
CENTAUR R/B 4.1 19:17:41 10° ESE 19:19:26 12° E 19:21:31 10° E
Cosmos 389 Rocket 2.9 19:16:28 10° NNW 19:19:53 61° W 19:23:17 10° S
Cosmos 1812 2.9 19:17:54 10° NNW 19:21:45 75° W 19:25:34 10° S
SPOT 3 Rocket 4.1 19:16:54 10° S 19:22:03 59° WSW 19:27:12 10° NNW
Cosmos 1633 Rocket 3.7 19:18:44 10° SSE 19:22:49 38° E 19:26:55 10° NNE
Cosmos 2251 Rocket 4.2 19:19:44 10° SW 19:24:56 60° WNW 19:30:12 10° NNE
Cosmos 1656 4.4 19:21:52 10° NW 19:27:08 50° WSW 19:32:27 10° S
Cosmos 1707 Rocket 3.5 19:26:51 10° N 19:31:14 88° E 19:35:34 10° S
Resurs 01 Rocket 2.2 19:28:48 10° S 19:33:09 59° WSW 19:37:33 10° NNW
Landsat 7 3.8 19:30:06 11° SSE 19:34:36 71° ENE 19:39:22 10° N
FALCON 9 DEB 4.3 19:36:20 10° SSW 19:39:09 23° SE 19:41:53 10° E
Cosmos 1441 Rocket 3.4 19:35:35 10° SSW 19:39:22 71° WNW 19:43:08 10° N
Cosmos 1934 Rocket 4.1 19:33:49 10° S 19:40:04 63° E 19:46:21 10° NNE
Cosmos 2360 4.3 19:36:53 10° NNW 19:42:41 83° WSW 19:47:32 15° SSE
Cosmos 614 Rocket 4.0 19:38:08 10° SSW 19:43:19 87° WNW 19:48:34 10° NNE
NOSS 3-2 (A) 4.1 19:39:30 10° S 19:44:20 29° ESE 19:49:42 10° ENE
IGS 5A 3.4 19:41:07 13° SSE 19:44:45 88° ENE 19:48:56 10° NNW
Cosmos 1470 Rocket 4.2 19:42:24 16° SSE 19:45:28 37° E 19:49:32 10° NNE
USA 267 3.2 19:39:37 10° ENE 19:46:10 70° SE 19:52:41 10° SW
GP-B 3.1 19:45:04 10° N 19:49:31 66° E 19:53:14 14° S
SWAS 4.4 19:46:28 10° SSW 19:50:45 66° ESE 19:55:03 10° NE
Cosmos 1821 Rocket 4.3 19:47:13 10° SSW 19:53:20 71° WNW 19:59:35 10° N
Meteor 2-20 Rocket 4.5 19:48:54 10° N 19:55:07 83° E 20:00:27 14° SSE
Cosmos 921 Rocket 3.3 19:51:26 10° NNW 19:55:36 53° ENE 19:58:03 22° SE
COSMOS 2406 3.6 19:50:10 10° SW 19:55:55 70° WNW 20:01:40 10° NNE
Cosmos 1862 Rocket 3.5 19:53:16 10° N 19:57:47 82° E 20:01:00 18° SSE
SL-16 R/B 3.1 19:53:10 10° NNW 19:58:27 38° NE 20:02:26 16° ESE
ERS-1 Rocket 3.0 19:56:08 19° SSE 19:59:45 68° ENE 20:04:46 10° N
Lacrosse 5 2.3 19:57:13 10° WNW 20:02:15 59° NNE 20:06:22 15° E
Cosmos 2369 4.3 19:57:48 10° NW 20:03:23 53° WSW 20:08:05 14° S
Sich 1 4.0 20:01:18 10° SSW 20:05:36 48° WNW 20:09:56 10° N
SAR-Lupe-2 4.0 20:02:50 10° NNE 20:06:16 41° E 20:07:36 28° SSE
BREEZE-M DEB (TANK) 1.3 20:07:22 10° W 20:09:45 64° S 20:09:54 59° SSE
Cosmos 2082 Rocket 2.1 20:05:16 10° SSW 20:10:56 73° ESE 20:16:37 10° NNE
NOSS 2 (A) 4.1 20:09:09 10° NW 20:11:51 69° NE 20:12:18 52° ESE
Cosmos 2123 Rocket 4.3 20:06:10 10° NNW 20:12:20 68° W 20:18:06 12° S
Cosmos 1954 Rocket 4.0 20:07:23 10° S 20:12:37 64° ESE 20:17:54 10° NNE
Cosmos 2278 4.0 20:07:04 10° NW 20:12:44 64° WSW 20:16:44 20° S
Spot 2 Rocket 4.1 20:11:25 13° S 20:15:53 53° W 20:20:54 10° NNW
Meteor 1-4 Rocket 3.8 20:16:52 10° NNW 20:20:07 36° W 20:22:26 16° SSW
Cosmos 2322 Rocket 2.9 20:15:31 10° NNW 20:20:58 44° NE 20:24:25 21° ESE
CARTOSAT-1 3.6 20:20:05 24° S 20:22:38 77° WSW 20:26:59 10° NNW
USA 234 3.5 20:18:46 22° SSE 20:23:01 58° SW 20:29:28 10° WNW
Cosmos 1184 Rocket 2.9 20:21:02 21° SSW 20:23:05 73° WNW 20:26:25 10° N
Terra 1.8 20:21:08 27° SSE 20:23:42 71° ENE 20:28:28 10° N
Cosmos 1190 Rocket 4.3 20:18:27 10° SSW 20:23:42 69° WNW 20:29:02 10° NNE
Cosmos 1933 Rocket 3.5 20:24:16 26° S 20:26:38 67° E 20:31:03 10° NNE
Cosmos 1605 Rocket 3.9 20:21:08 13° S 20:26:42 86° E 20:32:50 10° N
Cosmos 407 Rocket 4.2 20:21:29 10° SW 20:26:43 56° WNW 20:31:56 10° NNE
Meteor 1-20 Rocket 4.3 20:23:25 13° S 20:28:35 85° E 20:34:28 10° NNE
Cosmos 1238 Rocket 2.0 20:28:03 43° S 20:28:55 89° SE 20:31:53 10° N
Okean 1 3.2 20:25:42 10° N 20:29:46 84° E 20:31:27 34° SSE
Cosmos 1602 3.7 20:31:37 34° S 20:33:12 71° E 20:37:08 10° NNE
ATLAS 3B R/B 4.1 20:34:00 17° ESE 20:34:00 17° ESE 20:37:45 10° ENE
Cosmos 1437 Rocket 2.7 20:30:32 10° N 20:34:21 65° ENE 20:35:27 42° SE
Cosmos 2360 Rocket 3.3 20:29:55 10° NNW 20:35:05 34° NE 20:38:35 18° E
Cosmos 1869 Rocket 4.3 20:35:52 32° ESE 20:36:52 36° E 20:40:57 10° NNE
SPOT 5 2.8 20:35:54 27° S 20:38:07 63° WSW 20:42:28 10° NNW
Meteor 1-19 Rocket 4.1 20:33:53 10° NNW 20:39:21 89° ENE 20:42:13 29° SSE
Cosmos 2173 Rocket 4.4 20:36:35 28° SE 20:39:23 44° E 20:45:10 10° NNE
ERBS 4.4 20:36:42 10° WNW 20:39:38 28° N 20:42:33 10° NE
USA 238 DEB 3.6 20:33:21 10° SSW 20:39:52 63° SE 20:46:42 10° NE
USA 238 3.6 20:33:28 10° SSW 20:39:59 62° SE 20:46:48 10° NE
Iridium 4 Rocket 3.7 20:41:58 34° ESE 20:42:59 39° E 20:46:56 10° NNE
Geosat 4.4 20:40:38 28° ESE 20:43:08 55° NE 20:48:03 10° NNW
Cosmos 1980 Rocket 3.0 20:38:26 10° NW 20:43:46 42° WSW 20:47:05 21° SSW
Cosmos 1703 Rocket 3.5 20:41:04 10° N 20:45:28 89° W 20:47:06 38° S
Cosmos 2242 Rocket 3.8 20:41:01 10° NNW 20:45:28 67° W 20:47:29 31° S
Cosmos 1763 Rocket 3.5 20:43:26 10° NNW 20:48:48 89° WSW 20:51:08 35° SSE
Genesis I 4.5 20:46:22 10° WNW 20:49:46 29° WSW 20:50:44 26° SSW
SL-4 R/B 1.5 20:46:23 10° WSW 20:50:11 70° SSE 20:51:34 35° E
Meteor 1-14 Rocket 4.3 20:46:53 26° S 20:50:19 76° E 20:56:17 10° NNE
Cosmos 1500 3.6 20:50:18 41° ESE 20:50:28 41° E 20:54:01 10° NNE
BREEZE-M DEB (TANK) 3.1 20:47:30 10° W 20:50:49 82° S 21:01:44 10° E
Cosmos 405 Rocket 2.7 20:49:22 33° SSW 20:50:52 71° WNW 20:54:36 10° N
ALOS 2 4.4 20:50:20 17° E 20:51:53 20° ENE 20:55:07 10° NNE
MOS 1-B Rocket 4.4 20:49:12 10° NNE 20:54:35 40° E 20:56:13 33° SE
Cosmos 2333 Rocket 3.9 20:50:18 10° NNW 20:55:02 25° NE 20:59:21 12° E
Cosmos 1536 4.4 20:58:57 22° E 20:58:57 22° E 21:01:51 10° NE
Meteor 1-13 Rocket 4.5 20:53:24 10° N 20:58:51 53° ENE 21:00:56 34° SE
Cosmos 1459 Rocket 4.1 20:58:06 32° SSE 21:01:02 63° E 21:07:19 10° NNE
Cosmos 1833 Rocket 4.2 20:56:51 10° WSW 21:02:02 36° NW 21:07:14 10° NNE
Cosmos 1666 4.0 21:02:40 26° E 21:02:40 26° E 21:05:28 10° NNE
Okean 1-7 3.3 21:02:49 10° NNW 21:07:06 60° W 21:08:30 39° SSW
Cosmos 2221 Rocket 4.0 21:03:41 10° N 21:08:03 51° ENE 21:09:01 43° ESE
CENTAUR R/B 2.6 21:04:46 25° SSW 21:08:20 59° ESE 21:15:18 10° NE
Cosmos 1867 3.9 21:02:58 10° SW 21:08:24 69° NW 21:13:53 10° NE
Okean 3 3.5 21:08:55 10° N 21:13:12 69° ENE 21:13:59 55° SE
Cosmos 1733 Rocket 4.1 21:13:55 29° E 21:14:02 29° E 21:17:51 10° NNE
Thor Agena Rocket 4.0 21:10:53 10° NNE 21:15:39 40° E 21:16:25 37° ESE
FALCON 9 DEB 3.3 21:12:22 10° WSW 21:15:21 63° WSW 21:15:21 63° WSW
Cosmos 1802 Rocket 4.1 21:13:52 36° SSE 21:16:37 67° E 21:22:56 10° NNE
Meteor 2-4 Rocket 3.7 21:10:56 10° NNW 21:16:40 76° W 21:18:53 38° S
Cosmos 1850 Rocket 3.9 21:14:18 31° SSW 21:16:55 87° ESE 21:22:14 10° NNE
SL-27 R/B 2.8 21:19:37 51° NE 21:19:37 51° NE 21:22:17 10° NNE
Cosmos 44 3.3 21:16:49 10° NW 21:21:42 87° NE 21:23:09 48° SE
ATLAS 5 CENTAUR R/B 1.9 21:19:12 10° NW 21:21:54 89° NE 21:23:25 43° SE
Cosmos 2346 Rocket 4.4 21:18:34 10° N 21:24:40 78° E 21:26:55 41° SSE
Spot 4 3.8 21:27:26 51° SE 21:28:36 76° ENE 21:33:26 10° NNW
USA 267 3.8 21:22:44 10° ENE 21:29:10 61° NNW 21:35:36 10° W
BREEZE-M DEB (TANK) 4.3 21:18:14 10° W 21:32:56 64° S 21:35:19 33° ESE
NOSS 3-2 (A) 3.7 21:28:44 10° SW 21:34:34 70° NW 21:41:22 10° NE
Cosmos 1378 4.3 21:34:30 10° N 21:37:53 32° ENE 21:37:53 32° ENE
Cosmos 1816 Rocket 4.4 21:33:25 10° N 21:39:45 82° E 21:41:57 43° SSE
NOSS 3-2 (C) 3.4 21:35:51 18° SW 21:40:21 90° WNW 21:47:07 10° NE
Cosmos 841 Rocket 3.6 21:35:34 10° NNW 21:40:44 64° WSW 21:42:00 48° SSW
Cosmos 540 Rocket 3.6 21:37:03 10° NNW 21:42:11 64° WSW 21:43:22 49° SSW
SL-16 R/B 2.7 21:37:17 10° NW 21:42:43 47° WSW 21:44:17 37° SSW
Lacrosse 5 2.2 21:40:20 10° WNW 21:45:11 46° SW 21:45:31 46° SSW
Cosmos 2322 4.1 21:39:51 10° NNW 21:45:27 55° NE 21:47:36 35° ESE
Cosmos 1378 Rocket 3.9 21:46:56 10° N 21:51:19 52° ENE 21:51:46 50° E
Cosmos 1570 Rocket 4.5 21:46:49 10° NNW 21:51:58 51° WSW 21:53:10 42° SSW
Tsikada Rocket 4.0 21:46:22 10° N 21:52:47 89° E 21:54:55 45° S
Cosmos 2208 Rocket 4.2 21:48:55 10° NNW 21:54:07 57° WSW 21:55:11 48° SSW
Cosmos 2219 Rocket 2.9 21:48:40 10° NNW 21:54:09 47° NE 21:56:38 29° ESE
Cosmos 1814 Rocket 4.2 21:49:23 10° NNW 21:54:30 60° WSW 21:55:32 49° SSW
Cosmos 2082 Rocket 4.2 21:50:47 10° W 21:55:35 27° NW 22:00:24 10° NNE
COSMOS 2487 4.1 21:58:46 25° ENE 21:58:46 25° ENE 22:00:34 10° NE
Cosmos 2084 Rocket 3.3 21:59:01 82° ESE 21:59:01 82° ESE 22:03:19 10° NE
Cosmos 2237 4.2 21:53:33 10° NNW 21:59:15 69° WSW 22:00:34 51° S
Cosmos 2333 4.4 21:54:06 10° NNW 21:59:55 68° ENE 22:01:49 42° SE
Terra 3.9 22:00:02 14° WSW 22:01:58 17° W 22:05:05 10° NW
Cosmos 1975 Rocket 4.5 22:00:35 10° N 22:04:28 28° ENE 22:05:17 26° E
Cosmos 2322 Rocket 2.9 21:59:43 10° NW 22:04:59 40° WSW 22:06:13 35° SW
EO 1 Del DPAF 3.2 22:01:25 10° NNE 22:04:57 77° N 22:04:57 77° N
Meteor 1-11 Rocket 3.8 22:09:09 43° SW 22:11:01 71° WNW 22:16:48 10° N
Cosmos 1486 Rocket 4.3 22:11:53 46° ESE 22:12:09 46° ESE 22:17:08 10° NE
Cosmos 1242 Rocket 3.0 22:09:03 10° NNW 22:12:07 56° NW 22:12:07 56° NW
Helios 1A 3.6 22:13:11 44° E 22:13:34 46° ENE 22:17:37 10° N
ERBS 4.2 22:13:38 10° NW 22:16:35 28° N 22:18:11 19° ENE
Cosmos 2360 Rocket 2.4 22:13:49 10° NW 22:19:21 54° WSW 22:20:19 48° SSW
Cosmos 1544 4.5 22:20:20 31° ENE 22:20:20 31° ENE 22:22:54 10° NNE
COSMOS 2428 3.0 22:14:54 10° NNW 22:20:37 63° NE 22:22:37 40° ESE
ATLAS 3B R/B 2.5 22:21:12 44° SSW 22:23:23 73° SE 22:30:02 10° NE
Cosmos 489 Rocket 4.5 22:18:35 10° NNW 22:24:57 81° ENE 22:26:57 46° SE
Okean 2 3.8 22:21:01 10° N 22:25:02 51° ENE 22:25:03 51° ENE
ALOS 2 2.8 22:27:44 57° WSW 22:27:51 57° W 22:32:12 10° NNW
SL-4 R/B 3.9 22:26:09 10° W 22:27:13 18° W 22:27:13 18° W
Cosmos 1725 Rocket 4.4 22:27:19 34° SW 22:29:54 57° WNW 22:36:10 10° N
Nimbus 7 Rocket 4.3 22:24:38 10° NNE 22:30:32 86° WNW 22:32:15 49° SSW
Cosmos 1674 Rocket 4.0 22:28:58 10° NNW 22:33:09 49° W 22:33:13 49° W
Cosmos 2297 Rocket 4.2 22:34:19 13° ESE 22:34:56 13° E 22:37:27 10° ENE
Cosmos 1536 3.8 22:34:39 36° W 22:34:58 37° WNW 22:38:42 10° N
Cosmos 1666 4.2 22:37:32 27° W 22:37:50 27° WNW 22:41:05 10° N
Cosmos 1743 2.9 22:38:17 71° N 22:38:17 71° N 22:41:50 10° N
Cosmos 2333 Rocket 2.1 22:34:14 10° NNW 22:40:03 84° WSW 22:41:19 56° SSE
Cosmos 1271 Rocket 3.2 22:37:36 10° NNW 22:40:47 54° NW 22:40:47 54° NW
NOSS 0 Rocket 4.3 22:38:05 10° NNW 22:44:17 62° NE 22:47:14 32° ESE
Cosmos 2237 Rocket 3.2 22:38:56 10° NNW 22:44:19 42° NE 22:47:32 22° ESE
Lacrosse 4 Rocket 1.5 22:45:23 67° ENE 22:45:23 67° ENE 22:49:11 10° NE
Cosmos 1025 Rocket 4.5 22:43:47 10° N 22:47:29 28° ENE 22:48:18 26° E
Cosmos 1733 Rocket 4.2 22:50:59 31° W 22:51:46 33° WNW 22:55:48 10° N
Meteor 2-11 Rocket 4.4 22:51:22 50° SSW 22:53:04 78° W 22:59:13 10° N
Cosmos 44 Rocket 3.3 22:51:39 10° NW 22:56:39 86° NE 22:57:31 62° SE
CENTAUR R/B 3.6 22:53:09 10° WSW 22:59:17 47° NNW 23:06:33 10° NE
Cosmos 968 Rocket 3.3 22:59:01 66° SSW 22:59:46 87° WNW 23:04:56 10° NNE
Cosmos 1975 2.9 23:02:22 76° NNE 23:02:22 76° NNE 23:06:08 10° N
SL-24 DEB 4.5 23:00:01 10° N 23:04:44 60° W 23:05:18 55° WSW
Resurs 1-4 Rocket 4.1 23:03:21 10° NE 23:06:34 16° E 23:08:21 14° ESE
Cosmos 1354 Rocket 4.0 23:07:09 60° SSE 23:07:53 68° ESE 23:13:12 10° NNE
Cosmos 1782 Rocket 3.4 23:10:37 86° WSW 23:10:41 86° W 23:15:03 10° N
USA 267 4.1 23:05:26 10° ENE 23:11:43 51° N 23:17:59 10° WNW
Cosmos 1707 3.1 23:12:25 10° N 23:16:13 59° ENE 23:16:13 59° ENE
Cosmos 1464 Rocket 3.9 23:15:36 50° S 23:17:23 89° W 23:23:38 10° N
Cosmos 1842 3.9 23:14:21 10° NNW 23:17:41 46° WNW 23:17:41 46° WNW
Cosmos 1908 Rocket 4.2 23:18:33 41° W 23:18:55 42° WNW 23:23:07 10° N
Cosmos 2344 4.4 23:12:07 10° NW 23:21:15 82° NE 23:34:02 10° SE
Helios 1B rocket 2.7 23:17:52 10° NNE 23:21:48 55° E 23:21:48 55° E
CZ-4 R/B 3.9 23:17:14 10° NNE 23:22:15 76° ESE 23:23:00 63° SSE
Cosmos 2227 Rocket 3.5 23:22:42 25° ESE 23:23:49 27° ESE 23:28:27 10° NE
Meteor 1-21 4.3 23:18:23 10° NNW 23:24:09 65° W 23:25:21 52° SSW
Cosmos 1674 4.3 23:24:50 10° NNE 23:28:01 26° ENE 23:28:43 25° E
COSMOS 2487 4.5 23:32:14 20° WNW 23:32:32 20° NW 23:35:11 10° N
Nadezhda 4 Rocket 3.9 23:29:52 10° NNW 23:36:11 77° W 23:38:03 48° S
Cosmos 1777 Rocket 4.4 23:35:45 43° SE 23:36:41 48° ESE 23:41:47 10° NNE
Cosmos 2219 Rocket 2.9 23:32:51 10° NW 23:38:01 37° WSW 23:38:19 36° WSW
MOZ.5/SAFIR/RUBIN 5/SL-8 4.3 23:39:37 37° SE 23:41:11 55° ENE 23:45:51 10° N
Meteor 1-29 3.7 23:38:17 10° NNE 23:41:13 49° ENE 23:41:13 49° ENE
Cosmos 1975 Rocket 3.9 23:38:16 10° NNW 23:42:24 37° W 23:42:24 37° W
Cosmos 1437 4.1 23:42:41 10° NNW 23:44:31 34° NNW 23:44:31 34° NNW
Okean 2 Rocket 2.9 23:45:22 73° S 23:45:48 87° E 23:50:19 10° N
Cosmos 2034 Rocket 4.0 23:43:53 46° SSW 23:45:54 78° WNW 23:52:15 10° N
Cosmos 1503 Rocket 4.4 23:45:55 41° WSW 23:47:30 57° WNW 23:52:49 10° NNE
Landsat 4 4.4 23:45:33 10° N 23:49:11 45° WNW 23:49:11 45° WNW
SL-16 R/B 2.9 23:46:15 24° SE 23:50:05 61° ENE 23:56:16 10° N
ADEOS II 4.3 23:47:11 10° NE 23:50:19 16° E 23:53:26 10° ESE
Cosmos 1092 Rocket 3.9 23:44:08 10° N 23:50:26 89° E 23:52:45 42° S
GEOS 3 Rocket 4.0 23:47:00 10° NE 23:52:14 49° SE 23:53:18 43° SSE
Cosmos 1300 Rocket 3.3 23:52:28 75° SSW 23:52:48 85° W 23:57:08 10° N
CZ-2D R/B 3.2 23:47:45 10° NNE 23:52:50 37° E 23:54:55 27° SE
ERBS 4.4 23:49:53 10° WNW 23:51:02 20° NW 23:51:02 20° NW
Iridium 51 4.3 23:49:49 10° N 23:54:10 76° E 23:54:30 70° SE
